TimeEST,TemperatureF,Dew PointF,Humidity,Sea Level PressureIn,VisibilityMPH,Wind Direction,Wind SpeedMPH,Gust SpeedMPH,PrecipitationIn,Events,Conditions,WindDirDegrees,DateUTC
12:15 AM,33.8,28.4,81,29.62,10.0,SW,6.9,-,N/A,,Overcast,230,2013-01-10 05:15:00
12:36 AM,33.8,28.4,81,29.62,10.0,WSW,6.9,-,N/A,,Overcast,240,2013-01-10 05:36:00
12:55 AM,33.8,28.4,81,29.62,10.0,WSW,8.1,-,N/A,,Overcast,250,2013-01-10 05:55:00
1:15 AM,33.8,28.4,81,29.62,10.0,WSW,8.1,-,N/A,,Overcast,250,2013-01-10 06:15:00
1:55 AM,33.8,28.4,81,29.64,10.0,WSW,5.8,-,N/A,,Overcast,250,2013-01-10 06:55:00
2:15 AM,33.8,28.4,81,29.64,10.0,West,9.2,-,N/A,,Overcast,270,2013-01-10 07:15:00
2:35 AM,33.8,28.4,81,29.64,10.0,West,9.2,16.1,N/A,,Overcast,270,2013-01-10 07:35:00
2:55 AM,33.8,28.4,81,29.65,10.0,West,11.5,-,N/A,,Overcast,270,2013-01-10 07:55:00
3:15 AM,33.8,28.4,81,29.66,10.0,West,12.7,-,N/A,,Mostly Cloudy,270,2013-01-10 08:15:00
3:35 AM,33.8,28.4,81,29.68,10.0,WNW,9.2,-,N/A,,Scattered Clouds,290,2013-01-10 08:35:00
3:55 AM,33.8,26.6,75,29.69,10.0,WNW,10.4,17.3,N/A,,Overcast,290,2013-01-10 08:55:00
4:35 AM,33.8,28.4,81,29.72,10.0,WNW,11.5,20.7,N/A,,Mostly Cloudy,290,2013-01-10 09:35:00
4:55 AM,33.8,28.4,81,29.74,7.0,WNW,13.8,18.4,N/A,,Overcast,290,2013-01-10 09:55:00
5:15 AM,33.8,28.4,81,29.74,10.0,WNW,12.7,-,N/A,,Overcast,290,2013-01-10 10:15:00
5:35 AM,33.8,28.4,81,29.76,10.0,WNW,16.1,20.7,N/A,,Overcast,290,2013-01-10 10:35:00
6:15 AM,33.8,26.6,75,29.80,10.0,NW,11.5,19.6,N/A,,Overcast,310,2013-01-10 11:15:00
6:35 AM,33.8,26.6,75,29.82,10.0,WNW,13.8,-,N/A,,Overcast,300,2013-01-10 11:35:00
6:55 AM,33.8,26.6,75,29.83,10.0,WNW,11.5,-,N/A,,Overcast,290,2013-01-10 11:55:00
7:15 AM,33.8,26.6,75,29.85,10.0,WNW,9.2,-,N/A,,Overcast,290,2013-01-10 12:15:00
7:35 AM,33.8,26.6,75,29.86,10.0,WNW,11.5,-,N/A,,Overcast,290,2013-01-10 12:35:00
7:55 AM,33.8,26.6,75,29.87,10.0,West,11.5,17.3,N/A,,Overcast,280,2013-01-10 12:55:00
8:15 AM,33.8,26.6,75,29.89,10.0,WNW,10.4,-,N/A,,Overcast,290,2013-01-10 13:15:00
8:35 AM,33.8,26.6,75,29.90,10.0,WNW,10.4,-,N/A,,Overcast,290,2013-01-10 13:35:00
8:55 AM,33.8,24.8,70,29.91,10.0,WNW,11.5,19.6,N/A,,Mostly Cloudy,290,2013-01-10 13:55:00
9:15 AM,35.6,26.6,70,29.93,10.0,WNW,13.8,20.7,N/A,,Clear,290,2013-01-10 14:15:00
9:35 AM,35.6,26.6,70,29.95,10.0,WNW,8.1,19.6,N/A,,Partly Cloudy,300,2013-01-10 14:35:00
9:55 AM,35.6,26.6,70,29.96,10.0,WNW,10.4,16.1,N/A,,Mostly Cloudy,290,2013-01-10 14:55:00
10:15 AM,33.8,28.4,81,29.96,10.0,WNW,11.5,20.7,N/A,,Overcast,290,2013-01-10 15:15:00
10:35 AM,33.8,26.6,75,29.96,6.0,West,13.8,23.0,N/A,,Overcast,280,2013-01-10 15:35:00
10:55 AM,33.8,28.4,81,29.97,2.0,NW,10.4,18.4,N/A,,Overcast,310,2013-01-10 15:55:00
11:15 AM,33.8,26.6,75,29.98,10.0,NW,11.5,-,N/A,,Overcast,310,2013-01-10 16:15:00
11:35 AM,33.8,23.0,65,29.98,9.0,NW,16.1,24.2,N/A,,Overcast,310,2013-01-10 16:35:00
11:55 AM,35.6,21.2,56,29.99,10.0,NW,18.4,28.8,N/A,,Scattered Clouds,310,2013-01-10 16:55:00
12:15 PM,33.8,21.2,60,30.01,8.0,WNW,19.6,33.4,N/A,,Mostly Cloudy,300,2013-01-10 17:15:00
12:55 PM,33.8,17.6,52,30.04,10.0,NW,20.7,32.2,N/A,,Overcast,320,2013-01-10 17:55:00
1:15 PM,33.8,19.4,56,30.06,10.0,NW,21.9,29.9,N/A,,Overcast,320,2013-01-10 18:15:00
1:35 PM,33.8,17.6,52,30.07,10.0,NNW,18.4,24.2,N/A,,Overcast,330,2013-01-10 18:35:00
1:55 PM,32.0,17.6,55,30.10,10.0,NW,17.3,26.5,N/A,,Overcast,320,2013-01-10 18:55:00
2:15 PM,32.0,19.4,60,30.11,10.0,NW,13.8,23.0,N/A,,Overcast,320,2013-01-10 19:15:00
2:35 PM,32.0,17.6,55,30.12,3.0,NW,10.4,19.6,N/A,,Overcast,320,2013-01-10 19:35:00
2:55 PM,32.0,17.6,55,30.13,10.0,NNW,11.5,18.4,N/A,,Overcast,330,2013-01-10 19:55:00
3:15 PM,32.0,17.6,55,30.15,10.0,NW,9.2,-,N/A,,Overcast,310,2013-01-10 20:15:00
3:35 PM,32.0,17.6,55,30.17,10.0,NW,15.0,24.2,N/A,,Overcast,320,2013-01-10 20:35:00
3:55 PM,30.2,17.6,60,30.17,10.0,NW,17.3,21.9,N/A,,Mostly Cloudy,310,2013-01-10 20:55:00
4:15 PM,30.2,17.6,60,30.19,10.0,NW,12.7,-,N/A,,Mostly Cloudy,320,2013-01-10 21:15:00
4:35 PM,30.2,15.8,55,30.20,10.0,NW,18.4,28.8,N/A,,Partly Cloudy,320,2013-01-10 21:35:00
4:55 PM,28.4,15.8,59,30.21,10.0,NW,15.0,21.9,N/A,,Clear,320,2013-01-10 21:55:00
5:15 PM,28.4,15.8,59,30.24,10.0,NW,15.0,20.7,N/A,,Partly Cloudy,310,2013-01-10 22:15:00
5:35 PM,28.4,14.0,55,30.26,10.0,NW,12.7,21.9,N/A,,Mostly Cloudy,310,2013-01-10 22:35:00
6:15 PM,28.4,14.0,55,30.30,10.0,NW,11.5,19.6,N/A,,Overcast,320,2013-01-10 23:15:00
6:35 PM,26.6,14.0,59,30.31,10.0,NW,8.1,19.6,N/A,,Overcast,310,2013-01-10 23:35:00
6:55 PM,26.6,15.8,64,30.32,10.0,WNW,16.1,19.6,N/A,,Mostly Cloudy,300,2013-01-10 23:55:00
7:15 PM,26.6,12.2,55,30.32,10.0,WNW,15.0,23.0,N/A,,Partly Cloudy,300,2013-01-11 00:15:00
7:35 PM,26.6,12.2,55,30.34,10.0,NW,12.7,19.6,N/A,,Clear,310,2013-01-11 00:35:00
7:55 PM,26.6,14.0,59,30.35,10.0,NW,13.8,20.7,N/A,,Clear,310,2013-01-11 00:55:00
8:15 PM,26.6,12.2,55,30.35,10.0,NW,13.8,20.7,N/A,,Clear,320,2013-01-11 01:15:00
8:35 PM,24.8,14.0,64,30.35,10.0,NW,11.5,17.3,N/A,,Clear,310,2013-01-11 01:35:00
8:55 PM,24.8,12.2,59,30.35,10.0,NNW,13.8,17.3,N/A,,Clear,330,2013-01-11 01:55:00
9:15 PM,24.8,12.2,59,30.35,10.0,NW,16.1,24.2,N/A,,Clear,320,2013-01-11 02:15:00
9:35 PM,24.8,12.2,59,30.36,10.0,NNW,13.8,25.3,N/A,,Clear,330,2013-01-11 02:35:00
10:15 PM,24.8,12.2,59,30.37,10.0,NW,13.8,24.2,N/A,,Clear,320,2013-01-11 03:15:00
10:35 PM,23.0,12.2,63,30.36,10.0,NW,13.8,23.0,N/A,,Clear,310,2013-01-11 03:35:00
10:55 PM,23.0,12.2,63,30.36,10.0,NNW,16.1,23.0,N/A,,Clear,330,2013-01-11 03:55:00
11:15 PM,23.0,12.2,63,30.36,10.0,NW,16.1,25.3,N/A,,Clear,320,2013-01-11 04:15:00
11:35 PM,21.2,12.2,68,30.36,10.0,NNW,12.7,-,N/A,,Clear,330,2013-01-11 04:35:00
11:55 PM,21.2,12.2,68,30.35,10.0,NNW,11.5,17.3,N/A,,Clear,330,2013-01-11 04:55:00